Wind_Speed
30 31 31 32 33 35 36 36 37 37 38 38 38 39 40 40 41 43 44 45 45 45 45 45 45 45 47 47 47 47 47 48 49 49 49 50 50 51 50 51 52 52 53
31 31 32 32 33 34 35 36 36 37 38 39 40 40 40 41 41 42 43 44 45 45 46 46 46 46 46 46 46 47 48 49 49 50 51 51 52 52 53 53 53 53 54
31 32 32 33 34 34 34 35 36 37 38 38 39 40 41 42 42 43 43 43 44 45 46 47 47 47 47 47 48 48 49 49 49 50 50 50 51 52 53 54 54 54 54
30 31 32 33 34 35 35 36 36 37 38 38 38 40 41 42 42 43 44 44 45 46 47 47 47 48 48 48 49 49 49 50 51 51 51 51 52 53 54 54 55 54 55
31 31 32 32 32 34 35 35 35 36 37 37 38 39 41 42 43 44 44 45 45 46 47 47 48 48 48 49 49 49 50 50 51 52 52 53 54 54 55 55 55 55 56
32 33 33 33 33 34 34 35 35 36 37 38 39 39 40 41 42 43 44 44 45 45 46 47 48 48 49 50 50 50 50 51 51 51 52 52 53 54 55 55 56 56 57
34 34 33 34 34 34 35 36 36 37 37 38 38 39 40 42 43 43 43 44 45 46 47 47 47 48 49 49 49 49 49 50 51 51 52 52 53 54 55 55 56 57 57
34 34 34 34 34 34 34 35 36 37 37 38 38 39 40 42 43 43 44 45 46 46 47 47 47 47 48 48 48 48 48 49 50 51 52 53 54 55 55 56 57 57 58
34 34 34 34 34 33 34 34 35 36 37 38 38 39 40 42 43 43 44 45 46 46 46 46 46 46 47 47 48 48 48 49 50 51 52 54 54 55 56 57 57 57 57
34 34 34 35 34 34 34 36 36 37 38 39 39 39 40 41 42 43 44 44 44 44 44 45 45 46 47 47 48 49 49 50 52 52 53 54 54 54 55 56 56 56 56
35 35 35 36 36 36 36 37 38 38 39 40 40 41 42 43 43 43 44 44 44 44 44 45 46 46 47 48 49 49 50 51 52 52 53 53 53 54 54 55 55 55 55
36 36 36 36 37 37 37 38 39 39 40 40 41 42 43 43 43 43 43 44 44 43 44 45 46 47 48 49 50 50 50 51 51 51 52 52 53 53 54 54 54 54 55
36 36 37 37 37 38 38 39 40 40 41 42 42 42 42 42 43 43 44 44 44 44 45 46 47 48 48 49 49 50 50 50 51 51 52 53 54 54 54 54 54 54 55
36 37 37 38 38 39 40 41 42 42 42 43 44 43 43 43 42 43 44 44 44 45 46 47 47 48 48 48 49 50 50 51 51 51 52 53 54 53 52 52 53 54 54
37 38 38 38 39 40 40 41 41 42 43 43 42 42 42 41 42 42 43 44 44 45 46 46 47 47 48 48 49 50 51 51 52 52 52 52 51 51 51 51 52 52 52
37 37 38 38 39 39 39 39 40 41 40 40 40 40 41 41 42 42 43 44 45 45 45 46 47 48 48 49 49 50 51 51 51 51 50 50 50 50 50 50 50 50 50
36 36 35 36 37 37 37 37 37 37 37 37 38 39 39 40 41 41 42 43 43 44 44 44 46 47 48 48 49 49 49 49 49 49 49 49 49 49 49 48 48 47 46
34 34 34 35 36 36 36 36 35 35 36 36 37 37 38 38 39 40 40 40 40 41 42 43 44 45 45 46 46 46 46 46 46 46 46 46 46 46 46 45 44 43 42
34 34 35 35 35 35 35 34 34 34 35 35 36 37 37 38 38 39 39 40 40 41 41 42 42 42 42 42 43 43 43 43 43 43 43 43 42 42 42 41 41 41 40
34 34 35 35 35 35 34 33 33 34 35 35 36 36 36 37 37 38 38 39 40 40 40 39 39 39 40 40 40 40 40 39 39 39 39 39 39 38 38 38 38 38 38
33 34 34 34 34 33 33 33 34 34 35 35 35 35 36 36 36 37 37 37 37 37 37 36 36 36 37 37 37 36 36 36 36 36 36 35 35 36 36 35 35 35 35
33 33 33 32 32 33 33 34 34 34 34 35 35 35 35 35 35 35 35 35 35 35 35 35 35 35 34 34 34 33 34 34 34 34 34 34 34 34 34 33 33 33 33
31 32 32 33 33 33 34 34 34 34 34 35 35 35 35 35 34 34 34 35 35 35 34 34 34 34 34 33 33 32 32 32 32 32 32 32 32 31 31 31 31 32 32
32 32 33 34 34 34 34 34 34 34 34 34 34 34 33 33 34 34 34 34 34 34 34 34 34 34 33 32 31 31 30 30 30 30 30 29 29 29 29 29 29 29 30
34 34 34 35 35 35 35 35 34 34 34 34 33 33 33 33 33 33 33 33 33 33 33 32 32 31 30 30 30 29 29 29 29 28 28 27 27 27 27 27 27 27 27
34 35 35 35 35 35 35 35 35 34 34 33 32 32 32 32 32 32 32 31 31 31 30 30 29 29 28 28 29 28 28 27 27 26 25 25 24 25 25 25 25 25 25
Wind_Direction
261 259 259 259 258 258 258 258 257 256 255 254 255 256 256 256 256 256 257 259 260 260 260 262 264 265 265 264 265 266 267 267 269 270 270 271 272 274 274 275 276 277 278
261 260 260 259 259 259 259 258 258 258 258 258 257 257 257 257 257 256 257 258 260 261 261 262 263 264 265 265 266 267 267 268 269 271 272 272 273 273 274 275 276 276 278
262 261 261 261 260 260 259 259 259 258 258 259 258 256 256 256 255 256 258 259 260 261 261 261 262 263 265 266 267 267 268 268 270 271 272 272 272 273 274 275 276 277 279
265 264 264 263 262 262 261 261 260 258 259 259 260 259 257 256 257 258 258 259 260 261 262 262 263 264 266 267 268 269 269 270 271 271 272 271 272 272 274 276 277 278 279
268 267 268 267 265 263 261 261 260 260 259 260 259 260 259 260 260 261 261 262 262 263 264 264 264 265 266 267 269 270 271 272 272 272 273 274 274 274 274 277 278 278 279
270 269 269 269 267 265 263 262 261 261 260 261 261 261 261 261 262 262 263 264 264 265 265 265 266 266 267 269 270 271 272 273 273 273 274 275 275 276 276 277 278 279 280
269 269 269 269 268 267 265 264 263 262 261 261 262 262 262 263 263 263 265 265 265 265 266 268 268 268 268 269 270 271 273 273 274 274 275 276 277 277 277 278 279 280 281
270 268 268 268 268 267 267 266 266 264 264 263 263 262 263 265 266 266 267 267 267 268 268 268 269 269 269 270 271 272 273 273 274 274 276 278 279 278 278 279 279 280 280
270 269 268 268 269 269 267 267 267 267 267 267 267 267 266 266 267 269 269 269 269 269 269 269 270 270 270 270 271 272 273 274 275 276 278 279 280 280 280 280 280 281 281
271 270 269 270 270 270 269 269 270 269 269 269 269 270 269 269 270 271 270 270 269 269 269 270 270 271 271 271 273 273 274 276 277 278 279 280 281 280 280 281 282 283 284
271 270 271 271 271 271 270 271 272 272 271 271 271 272 272 271 271 270 271 271 270 270 270 271 271 271 271 272 274 274 275 276 277 278 279 280 280 281 281 282 283 284 284
271 271 272 272 272 273 272 273 273 273 273 273 273 273 273 272 272 270 270 270 270 270 271 272 272 271 272 273 274 276 277 277 278 279 279 279 280 281 281 282 283 284 284
271 272 272 273 273 273 274 274 275 274 273 273 273 273 273 272 271 270 269 270 272 271 272 272 272 272 273 274 275 275 277 278 278 279 279 279 280 281 282 282 282 283 285
274 273 273 273 274 275 275 276 276 276 275 275 274 273 273 272 271 270 270 271 272 273 273 272 273 273 273 274 275 276 277 278 279 279 279 280 281 281 281 282 282 284 285
274 275 275 275 276 277 278 278 278 277 277 276 275 274 273 272 271 272 272 273 273 273 274 274 274 274 275 276 277 277 277 278 279 279 280 280 281 281 281 282 283 284 285
275 275 276 276 277 278 279 279 279 278 277 276 275 275 274 273 273 273 273 273 274 274 274 274 274 275 275 277 277 278 279 279 280 280 280 280 281 281 282 282 283 284 285
277 277 277 278 280 280 280 280 279 278 278 277 276 275 275 275 275 274 274 274 274 274 275 276 276 276 276 277 278 279 279 279 280 280 280 281 281 281 282 282 283 283 283
277 277 278 279 280 281 282 281 280 279 278 277 277 277 277 277 277 276 275 275 276 277 277 277 278 278 278 278 279 280 280 279 279 280 281 281 282 282 282 282 282 282 282
277 278 279 280 281 282 282 282 281 281 280 279 279 278 278 278 277 277 276 276 277 278 278 278 278 279 279 280 280 280 281 280 280 280 281 282 282 282 282 282 282 282 283
279 280 281 282 283 283 283 282 281 281 280 280 280 280 279 279 279 279 279 279 279 280 280 280 280 281 281 282 282 282 282 282 282 282 282 283 283 283 283 284 284 285 285
280 281 282 283 283 283 282 282 282 281 281 281 281 281 281 281 281 281 281 280 280 280 280 281 281 282 282 283 282 282 282 282 283 283 283 283 284 284 285 286 286 286 287
280 281 282 284 284 284 284 283 283 282 282 282 282 283 283 283 282 282 282 281 282 282 281 281 281 282 282 281 282 282 283 284 284 284 283 284 285 285 285 286 286 287 288
282 282 283 284 285 285 285 284 283 282 283 283 283 283 283 283 282 282 282 283 283 281 280 280 280 280 280 280 281 282 283 283 283 283 284 285 285 285 286 286 286 287 287
282 283 283 284 285 285 284 284 283 282 283 283 283 283 282 282 282 282 282 282 282 282 280 280 279 279 279 280 280 281 281 282 283 284 284 284 284 284 285 286 287 288 288
283 283 283 284 285 284 283 282 282 282 282 282 282 282 282 282 283 283 283 283 283 281 280 280 279 278 278 278 279 280 280 282 283 283 283 283 284 284 286 287 288 289 288
283 283 283 283 283 283 282 281 281 281 281 281 281 281 282 283 283 283 283 283 282 281 280 279 278 277 277 278 279 280 281 281 282 282 282 283 284 286 288 290 290 290 289
Height
5639 5640 5641 5641 5642 5643 5643 5644 5645 5646 5648 5650 5652 5654 5655 5657 5659 5661 5663 5665 5667 5669 5671 5672 5673 5675 5676 5677 5678 5679 5680 5681 5682 5683 5682 5682 5682 5682 5682 5681 5681 5680 5678
5632 5632 5632 5633 5633 5634 5634 5635 5636 5638 5639 5641 5642 5644 5645 5647 5648 5650 5652 5653 5655 5657 5659 5661 5662 5663 5664 5665 5666 5666 5667 5668 5669 5670 5670 5669 5669 5669 5668 5668 5667 5666 5664
5623 5623 5624 5624 5625 5625 5626 5627 5627 5628 5629 5630 5632 5633 5635 5636 5638 5639 5641 5642 5644 5645 5647 5648 5650 5651 5652 5653 5653 5654 5654 5655 5655 5656 5656 5656 5655 5655 5654 5654 5652 5651 5650
5614 5615 5615 5615 5616 5616 5617 5617 5618 5619 5620 5620 5622 5623 5624 5625 5627 5628 5630 5631 5632 5634 5635 5636 5637 5638 5639 5640 5640 5641 5641 5641 5642 5642 5642 5642 5642 5641 5640 5639 5638 5637 5636
5606 5606 5606 5607 5607 5607 5607 5608 5608 5609 5610 5611 5612 5613 5614 5615 5616 5617 5618 5620 5621 5622 5623 5623 5624 5625 5626 5626 5627 5627 5627 5627 5627 5627 5627 5627 5627 5626 5626 5624 5624 5622 5621
5598 5597 5597 5597 5597 5598 5598 5598 5599 5600 5600 5601 5602 5602 5603 5604 5605 5606 5607 5608 5609 5610 5610 5610 5611 5612 5612 5613 5613 5613 5613 5613 5613 5613 5613 5613 5612 5611 5610 5609 5608 5607 5606
5589 5589 5588 5588 5588 5588 5588 5589 5589 5590 5590 5591 5591 5592 5593 5593 5594 5594 5595 5596 5597 5597 5597 5597 5598 5598 5598 5599 5599 5599 5599 5599 5599 5599 5599 5598 5597 5596 5595 5594 5592 5591 5590
5579 5579 5579 5579 5579 5579 5579 5579 5579 5580 5580 5581 5581 5581 5582 5582 5582 5582 5583 5583 5584 5584 5584 5584 5585 5585 5585 5585 5585 5586 5585 5585 5585 5585 5585 5584 5582 5580 5579 5578 5576 5575 5574
5570 5570 5570 5569 5570 5569 5570 5570 5570 5570 5570 5570 5570 5570 5570 5571 5570 5570 5570 5571 5571 5571 5571 5571 5572 5572 5572 5572 5572 5572 5572 5571 5570 5570 5569 5568 5566 5564 5562 5561 5560 5558 5557
5561 5560 5560 5560 5560 5560 5560 5560 5560 5559 5559 5559 5559 5559 5559 5559 5558 5558 5558 5558 5558 5558 5559 5559 5559 5559 5559 5558 5558 5558 5558 5557 5556 5555 5554 5553 5551 5549 5546 5545 5543 5542 5540
5551 5551 5550 5550 5550 5550 5550 5549 5549 5549 5548 5548 5548 5548 5547 5547 5546 5546 5545 5545 5546 5546 5546 5546 5546 5545 5545 5545 5544 5544 5543 5543 5542 5541 5539 5537 5535 5533 5531 5529 5527 5525 5524
5541 5541 5540 5540 5540 5540 5539 5539 5538 5538 5537 5537 5536 5536 5535 5534 5534 5533 5533 5533 5533 5533 5533 5533 5532 5532 5531 5531 5530 5530 5529 5528 5527 5525 5524 5522 5520 5519 5516 5514 5512 5510 5507
5530 5530 5530 5530 5529 5529 5528 5527 5527 5526 5525 5525 5524 5523 5523 5522 5521 5521 5520 5520 5520 5520 5520 5519 5519 5518 5518 5517 5516 5515 5514 5513 5511 5510 5509 5507 5505 5503 5501 5499 5497 5494 5492
5520 5519 5519 5519 5519 5518 5517 5516 5515 5514 5513 5512 5511 5510 5510 5509 5509 5508 5507 5507 5506 5506 5506 5505 5504 5504 5503 5503 5502 5500 5499 5498 5496 5495 5493 5492 5490 5488 5486 5484 5482 5479 5477
5509 5508 5508 5508 5507 5506 5505 5504 5502 5501 5500 5499 5498 5497 5496 5496 5496 5495 5494 5494 5493 5492 5492 5491 5490 5490 5489 5488 5487 5485 5484 5482 5481 5479 5478 5476 5475 5473 5471 5468 5466 5464 5462
5497 5497 5497 5496 5495 5494 5493 5492 5490 5488 5487 5485 5484 5484 5483 5483 5482 5481 5481 5480 5479 5478 5478 5477 5476 5476 5475 5473 5472 5470 5469 5467 5465 5463 5462 5461 5459 5458 5456 5453 5451 5449 5447
5486 5486 5485 5485 5483 5482 5481 5480 5479 5477 5475 5474 5472 5471 5470 5470 5469 5468 5467 5466 5465 5464 5464 5463 5462 5461 5460 5458 5457 5455 5454 5452 5450 5449 5447 5446 5444 5443 5441 5439 5437 5435 5433
5476 5475 5474 5473 5472 5471 5469 5468 5466 5465 5464 5463 5461 5460 5459 5457 5456 5455 5454 5453 5452 5451 5450 5449 5448 5447 5445 5444 5442 5441 5439 5438 5436 5435 5433 5432 5430 5429 5427 5425 5423 5422 5420
5465 5464 5463 5462 5461 5459 5458 5456 5455 5454 5452 5451 5450 5448 5447 5445 5444 5443 5442 5441 5440 5439 5437 5436 5434 5433 5432 5430 5429 5427 5426 5424 5423 5421 5420 5419 5417 5416 5414 5413 5411 5409 5407
5454 5453 5452 5451 5450 5448 5447 5445 5444 5442 5441 5440 5438 5437 5435 5434 5432 5431 5430 5428 5427 5426 5424 5423 5422 5420 5419 5418 5416 5415 5414 5412 5411 5410 5408 5407 5406 5404 5403 5401 5399 5398 5396
5443 5442 5441 5440 5439 5437 5436 5434 5433 5431 5430 5428 5427 5425 5424 5422 5421 5419 5418 5416 5415 5413 5412 5411 5410 5408 5407 5406 5405 5403 5402 5401 5400 5399 5398 5396 5395 5393 5392 5390 5388 5387 5385
5433 5432 5430 5429 5428 5426 5425 5423 5422 5420 5419 5417 5416 5414 5413 5411 5409 5408 5406 5405 5403 5402 5401 5400 5399 5397 5396 5395 5394 5393 5392 5391 5389 5388 5387 5386 5384 5383 5381 5380 5378 5376 5374
5422 5421 5420 5419 5417 5416 5414 5412 5411 5409 5408 5406 5405 5403 5402 5400 5398 5397 5396 5394 5393 5391 5390 5389 5388 5387 5385 5384 5384 5383 5382 5381 5379 5378 5377 5376 5374 5373 5371 5370 5368 5366 5365
5412 5411 5410 5408 5407 5405 5403 5401 5400 5398 5397 5395 5394 5392 5391 5390 5388 5387 5385 5384 5382 5381 5379 5378 5377 5376 5375 5374 5373 5373 5372 5371 5370 5368 5367 5366 5364 5363 5362 5360 5359 5357 5355
5401 5400 5399 5397 5395 5394 5392 5390 5389 5388 5386 5385 5383 5382 5381 5379 5378 5376 5374 5373 5371 5370 5369 5368 5367 5366 5365 5365 5364 5363 5362 5361 5360 5359 5358 5357 5356 5354 5353 5351 5350 5348 5346
5390 5389 5387 5386 5384 5382 5381 5379 5378 5376 5375 5374 5372 5371 5370 5369 5367 5366 5364 5363 5361 5360 5359 5358 5357 5356 5356 5355 5355 5354 5353 5352 5351 5350 5349 5349 5347 5346 5345 5343 5342 5340 5338